Osceola, WI

3:36 PM CDT on May 25, 2017 (GMT -0500)
Simenstad Municipal

Weather History for KOEO - March, 2013

Change the Weather History Date:

Friday, March 29, 2013

  Actual Average (KANE) Record (KANE)
Temperature  
Mean Temperature 32 °F -  
Max Temperature 44 °F 44 °F 69 °F (2005)
Min Temperature 21 °F 27 °F 17 °F (2011)
Degree Days  
Heating Degree Days 32    
Moisture  
Dew Point 26 °F    
Average Humidity 72    
Maximum Humidity 93    
Minimum Humidity 57    
Precipitation  
Precipitation 0.02 in - - ()
Sea Level Pressure  
Sea Level Pressure 30.25 in    
Wind  
Wind Speed 4 mph (SE)    
Max Wind Speed 10 mph    
Max Gust Speed -    
Visibility 10 miles    
Events Rain    
Averages and records for this station are not official NWS values.
T = Trace of Precipitation, MM = Missing Value Source: NWS Daily Summary

Daily Weather History Graph

Daily Weather History Graph

Search for Another Location

Airport or City:

Trip Planner

Search our weather history database for the weather conditions in past years. The results will help you decide how hot, cold, wet, or windy it might be!

Date:

Astronomy

Mar. 29, 2013 Rise Set
Actual Time 6:56 AM CDT 7:35 PM CDT
Civil Twilight 6:26 AM CDT 8:05 PM CDT
Nautical Twilight 5:51 AM CDT 8:40 PM CDT
Astronomical Twilight 5:14 AM CDT 9:17 PM CDT
Moon 10:46 PM CDT (3/29) 7:57 AM CDT (3/29)
Length of Visible Light 13h 38m
Length of Day
12h 38m
Waning Gibbous, 93% of the Moon is Illuminated
Mar 29
Waning Gibbous
Apr 2
Last Quarter
Apr 10
New
Apr 18
First Quarter
Apr 25
Full

Hourly Weather History & Observations

Time (CDT) Temp. Windchill Dew Point Humidity Pressure Visibility Wind Dir Wind Speed Gust Speed Precip Events Conditions
12:15 AM 26.6 °F 22.6 °F 21.2 °F 80% 30.31 in 10.0 mi ESE 3.5 mph - N/A   Clear
12:35 AM 26.6 °F - 21.2 °F 80% 30.31 in 10.0 mi Calm Calm - N/A   Clear
12:55 AM 24.8 °F - 21.2 °F 86% 30.31 in 10.0 mi Calm Calm - N/A   Clear
1:15 AM 23.0 °F - 19.4 °F 86% 30.31 in 10.0 mi Calm Calm - N/A   Clear
1:35 AM 24.8 °F - 21.2 °F 86% 30.32 in 10.0 mi Calm Calm - N/A   Clear
1:55 AM 23.0 °F - 21.2 °F 93% 30.32 in 10.0 mi Calm Calm - N/A   Clear
2:15 AM 23.0 °F - 19.4 °F 86% 30.31 in 10.0 mi Calm Calm - N/A   Clear
2:35 AM 21.2 °F - 17.6 °F 86% 30.31 in 10.0 mi Calm Calm - N/A   Clear
2:55 AM 21.2 °F - 19.4 °F 93% 30.31 in 10.0 mi Calm Calm - N/A   Clear
3:15 AM 23.0 °F - 19.4 °F 86% 30.31 in 10.0 mi Calm Calm - N/A   Clear
3:35 AM 21.2 °F - 17.6 °F 86% 30.31 in 10.0 mi Calm Calm - N/A   Clear
3:55 AM 21.2 °F - 17.6 °F 86% 30.31 in 10.0 mi Calm Calm - N/A   Clear
4:15 AM 21.2 °F 14.9 °F 17.6 °F 86% 30.31 in 10.0 mi East 4.6 mph - N/A   Clear
4:35 AM 23.0 °F - 17.6 °F 80% 30.30 in 10.0 mi Calm Calm - N/A   Clear
4:55 AM 23.0 °F 18.4 °F 17.6 °F 80% 30.30 in 10.0 mi East 3.5 mph - N/A   Scattered Clouds
5:15 AM 23.0 °F - 19.4 °F 86% 30.31 in 10.0 mi Calm Calm - N/A   Mostly Cloudy
5:35 AM 26.6 °F 19.1 °F 21.2 °F 80% 30.30 in 10.0 mi East 6.9 mph - N/A   Overcast
5:55 AM 28.4 °F 23.3 °F 21.2 °F 74% 30.30 in 10.0 mi East 4.6 mph - N/A   Overcast
6:15 AM 28.4 °F 24.6 °F 21.2 °F 74% 30.30 in 10.0 mi ESE 3.5 mph - N/A   Overcast
6:35 AM 28.4 °F - 21.2 °F 74% 30.31 in 10.0 mi Calm Calm - N/A   Mostly Cloudy
6:55 AM 26.6 °F 22.6 °F 21.2 °F 80% 30.31 in 10.0 mi East 3.5 mph - N/A   Overcast
7:15 AM 30.2 °F 24.3 °F 21.2 °F 69% 30.31 in 10.0 mi ESE 5.8 mph - N/A   Overcast
7:35 AM 28.4 °F 21.2 °F 21.2 °F 74% 30.31 in 10.0 mi East 6.9 mph - N/A   Scattered Clouds
7:55 AM 28.4 °F 21.2 °F 21.2 °F 74% 30.30 in 10.0 mi ESE 6.9 mph - N/A   Clear
8:15 AM 28.4 °F 23.3 °F 23.0 °F 80% 30.31 in 10.0 mi ESE 4.6 mph - N/A   Clear
8:35 AM 30.2 °F 26.7 °F 23.0 °F 75% 30.31 in 10.0 mi ESE 3.5 mph - N/A   Scattered Clouds
8:55 AM 32.0 °F 25.6 °F 23.0 °F 69% 30.31 in 10.0 mi ESE 6.9 mph - N/A   Overcast
9:15 AM 32.0 °F 26.4 °F 24.8 °F 75% 30.31 in 10.0 mi ESE 5.8 mph - N/A   Overcast
9:35 AM 33.8 °F 27.7 °F 24.8 °F 70% 30.31 in 10.0 mi SE 6.9 mph - N/A   Overcast
9:55 AM 33.8 °F 26.4 °F 24.8 °F 70% 30.31 in 10.0 mi ESE 9.2 mph - N/A   Overcast
10:15 AM 33.8 °F 26.4 °F 24.8 °F 70% 30.30 in 10.0 mi SE 9.2 mph - N/A   Overcast
10:35 AM 35.6 °F 31.7 °F 24.8 °F 65% 30.31 in 10.0 mi SE 4.6 mph - N/A   Overcast
10:55 AM 37.4 °F 32.8 °F 26.6 °F 65% 30.30 in 10.0 mi SE 5.8 mph - N/A   Overcast
11:15 AM 37.4 °F 33.8 °F 26.6 °F 65% 30.30 in 10.0 mi SE 4.6 mph - N/A   Overcast
11:35 AM 39.2 °F 34.2 °F 26.6 °F 61% 30.29 in 10.0 mi SE 6.9 mph - N/A   Overcast
11:55 AM 39.2 °F 33.0 °F 26.6 °F 61% 30.29 in 10.0 mi SE 9.2 mph - N/A   Overcast
12:15 PM 39.2 °F 34.2 °F 28.4 °F 65% 30.29 in 10.0 mi SSE 6.9 mph - N/A   Mostly Cloudy
12:35 PM 41.0 °F 34.7 °F 28.4 °F 61% 30.28 in 10.0 mi SE 10.4 mph - N/A   Scattered Clouds
12:55 PM 41.0 °F 35.2 °F 30.2 °F 65% 30.27 in 10.0 mi SSE 9.2 mph - N/A   Scattered Clouds
1:15 PM 41.0 °F 35.2 °F 30.2 °F 65% 30.26 in 10.0 mi SSE 9.2 mph - N/A   Scattered Clouds
1:35 PM 41.0 °F 34.7 °F 30.2 °F 65% 30.26 in 10.0 mi SSE 10.4 mph - N/A   Mostly Cloudy
1:55 PM 41.0 °F 35.2 °F 30.2 °F 65% 30.25 in 10.0 mi SSE 9.2 mph - N/A   Overcast
2:15 PM 42.8 °F 37.5 °F 30.2 °F 61% 30.25 in 10.0 mi SSE 9.2 mph - N/A   Mostly Cloudy
2:35 PM 42.8 °F 37.5 °F 30.2 °F 61% 30.24 in 10.0 mi SSE 9.2 mph - N/A   Scattered Clouds
2:55 PM 41.0 °F 35.8 °F 30.2 °F 65% 30.23 in 10.0 mi SSE 8.1 mph - N/A   Scattered Clouds
3:15 PM 41.0 °F 36.4 °F 32.0 °F 70% 30.23 in 10.0 mi SSE 6.9 mph - N/A   Mostly Cloudy
3:35 PM 42.8 °F 37.0 °F 30.2 °F 61% 30.22 in 10.0 mi SSE 10.4 mph - N/A   Mostly Cloudy
3:55 PM 42.8 °F 37.0 °F 30.2 °F 61% 30.22 in 10.0 mi SSE 10.4 mph - N/A   Mostly Cloudy
4:15 PM 44.6 °F 40.2 °F 30.2 °F 57% 30.21 in 10.0 mi SE 8.1 mph - N/A   Scattered Clouds
4:35 PM 44.6 °F 42.2 °F 30.2 °F 57% 30.20 in 10.0 mi SE 4.6 mph - N/A   Scattered Clouds
4:55 PM 44.6 °F 40.7 °F 30.2 °F 57% 30.19 in 10.0 mi SE 6.9 mph - N/A   Scattered Clouds
5:15 PM 42.8 °F 38.0 °F 32.0 °F 66% 30.19 in 10.0 mi SSE 8.1 mph - N/A   Scattered Clouds
5:35 PM 42.8 °F 37.5 °F 30.2 °F 61% 30.19 in 10.0 mi SSE 9.2 mph - N/A   Mostly Cloudy
5:55 PM 42.8 °F 38.6 °F 30.2 °F 61% 30.18 in 10.0 mi SSE 6.9 mph - N/A   Overcast
6:15 PM 42.8 °F 38.6 °F 30.2 °F 61% 30.18 in 10.0 mi SE 6.9 mph - N/A   Mostly Cloudy
6:35 PM 42.8 °F 38.6 °F 30.2 °F 61% 30.18 in 10.0 mi SE 6.9 mph - N/A   Scattered Clouds
6:55 PM 42.8 °F 40.1 °F 30.2 °F 61% 30.17 in 10.0 mi SSE 4.6 mph - N/A   Scattered Clouds
7:15 PM 41.0 °F 39.0 °F 32.0 °F 70% 30.16 in 10.0 mi ESE 3.5 mph - N/A   Mostly Cloudy
7:35 PM 39.2 °F 37.0 °F 32.0 °F 75% 30.16 in 10.0 mi SE 3.5 mph - N/A   Mostly Cloudy
7:55 PM 41.0 °F 39.0 °F 30.2 °F 65% 30.16 in 10.0 mi SE 3.5 mph - N/A   Clear
8:15 PM 41.0 °F 38.0 °F 30.2 °F 65% 30.16 in 10.0 mi SE 4.6 mph - N/A   Clear
8:35 PM 39.2 °F 35.0 °F 30.2 °F 70% 30.16 in 10.0 mi SE 5.8 mph - N/A   Clear
8:55 PM 37.4 °F 33.8 °F 32.0 °F 81% 30.16 in 10.0 mi ESE 4.6 mph - N/A   Clear
9:15 PM 37.4 °F 33.8 °F 32.0 °F 81% 30.15 in 10.0 mi ESE 4.6 mph - N/A   Clear
9:35 PM 37.4 °F 33.8 °F 32.0 °F 81% 30.15 in 10.0 mi SE 4.6 mph - N/A   Scattered Clouds
9:55 PM 39.2 °F 35.0 °F 32.0 °F 75% 30.15 in 10.0 mi SE 5.8 mph - N/A   Clear
10:15 PM 39.2 °F 35.0 °F 32.0 °F 75% 30.14 in 10.0 mi SE 5.8 mph - N/A   Mostly Cloudy
10:35 PM 41.0 °F 35.8 °F 32.0 °F 70% 30.13 in 10.0 mi SE 8.1 mph - N/A   Overcast
10:55 PM 41.0 °F 35.8 °F 32.0 °F 70% 30.13 in 10.0 mi SSE 8.1 mph - N/A   Overcast
11:15 PM 39.2 °F 35.0 °F 32.0 °F 75% 30.13 in 10.0 mi SSE 5.8 mph - N/A   Overcast
11:35 PM 39.2 °F 37.0 °F 32.0 °F 75% 30.12 in 7.0 mi SE 3.5 mph - N/A Rain Light Rain
11:55 PM 37.4 °F 32.1 °F 33.8 °F 87% 30.11 in 7.0 mi SE 6.9 mph - 0.02 in Rain Light Rain